Location: Alphen
(52.1351°N, 4.6549°E)
Time: 01:33:29
(UTC+00:00)

FALCON 9 DEB - Pass Details

Date: 27 January 2021
Orbit: 424 x 437 km, 53.0° (Epoch: 27 February)

Event Time Altitude Azimuth Distance (km) Brightness Sun altitude
Exits shadow 06:00:55 25° 276° (W) 900 4.1 -13.4°
Maximum altitude 06:02:44 75° 358° (N) 447 3.1 -13.1°
Drops below altitude 10° 06:06:09 10° 84° (E) 1,523 7.1 -12.6°
Sets 06:08:16 0° 87° (E) 2,392 8.5 -12.3°
